Location: Aalen
(48.8330°N, 10.1000°E)
Time: 01:49:18
(UTC+01:00)

BlueWalker 3 - Pass Details

Date: 03 December 2022
Orbit: 499 x 517 km, 53.2° (Epoch: 26 January)

Event Time Altitude Azimuth Distance (km) Brightness Sun altitude
Rises 18:10:44 0° 284° (WNW) 2,633 6.7 -16.7°
Reaches altitude 10° 18:13:01 10° 291° (WNW) 1,742 5.5 -17.1°
Maximum altitude 18:16:48 43° 5° (N) 723 2.5 -17.7°
Enters shadow 18:17:39 37° 40° (NE) 805 2.5 -17.8°
